Погода в Филькином

Россия / Белгородская область     50°31′31″N   38°19′55″E
темп.,
°C
ветер,
м/с
пор.,
м/с
влажн.,
%
обл.,
%
осадки,
мм/ч
давл.,
гПа
погр.,
м
27 января, чт
чт2700:00−14юз229981 0.1 101910
03:00−16зюз1110099 0.1 10199
06:00−18зсз11100100 0.1 10209
09:00−19сз00100100 0.1 10219
12:00−11з119496 0.0 1020142
15:00−10зюз129282 0.1 1019205
18:00−17юз1110073 0.0 10209
21:00−19ююз22100100 0.0 102010
28 января, пт
пт2800:00−20ююз22100100 0.0 101913
03:00−21ю22100100 0.1 101824
06:00−17ю38100100 0.1 1016114
09:00−12ю41096100 0.2 1015220
12:00−6ю6109499 0.1 1013331
15:00−3ю61296100 0.6 1011507
18:00−1ююз61497100 0.8 1009697
21:00−1ююз6129799 1.3 1008644
29 января, сб
сб2900:00−1юз4997100 0.3 1008488
03:00−1ююз4997100 0.6 1008401
06:00−1ююз4997100 0.2 1007397
09:00−2ююз51097100 0.6 1007492
12:000юз5109895 0.7 1007569
15:000зюз6109987 1.0 1008666
18:00−1зюз6129377 0.1 1009503
21:00−3зюз6119595 0.3 1010549
30 января, вс
вс3000:00−4з6119497 0.2 1011484
03:00−6з6129495 0.4 1012432
06:00−7юз5119697 0.1 1011285
09:00−7юз61497100 0.1 1010498
12:00−4ююз81691100 0.1 1007720
15:00−4ююз91887100 0.1 1004850
18:00−2ююз101996100 1.2 10001197
21:00−1ююз91596100 2.5 997870
31 января, пн
пн3100:00−1юз71496100 0.5 996759
03:00−1ююз71392100 0.7 995932
06:00−1ююз81593100 0.1 992919
09:00−1ююз91696100 0.5 9921023
12:00−1юз91495100 1.1 9921115
15:00−2зюз91492100 1.4 994998
18:00−4зюз81591100 0.1 998734
21:00−5зюз81492100 0.3 1001712